Location: D�derode
(51.8092°N, 10.1065°E)
Time: 14:35:01
(UTC+00:00)

NOSS 3-3 (C) - Visible Passes

Search period start: 20 April 2021 00:00
Search period end: 30 April 2021 00:00
Orbit: 813 x 1399 km, 63.4° (Epoch: 15 April)

Date Brightness Start Highest point End Pass type
(mag) Time Alt. Az. Time Alt. Az. Time Alt. Az.
20 Apr 4.5 00:58:34 37° SSE 01:00:10 44° ESE 01:06:23 10° NE visible
20 Apr 4.4 02:46:00 15° WSW 02:50:58 57° NNW 02:57:50 10° NE visible
21 Apr 5.0 00:15:00 29° SE 00:15:44 29° ESE 00:21:12 10° ENE visible
21 Apr 4.1 02:02:25 26° WSW 02:05:59 75° NW 02:12:54 10° NE visible
21 Apr 5.5 23:31:24 19° ESE 23:31:25 19° ESE 23:35:40 10° ENE visible
22 Apr 3.9 01:18:49 40° SSW 01:21:10 81° SE 01:27:57 10° NE visible
22 Apr 5.1 03:06:54 10° W 03:12:44 40° NNW 03:19:26 10° NE visible
22 Apr 6.0 22:47:45 11° E 22:47:45 11° E 22:48:58 10° E visible
23 Apr 4.1 00:35:10 47° SSE 00:36:29 57° SE 00:42:59 10° NE visible
23 Apr 4.7 02:22:35 15° W 02:27:35 49° NNW 02:34:24 10° NE visible
23 Apr 4.6 23:51:30 37° SE 23:51:58 38° ESE 23:57:55 10° NE visible
24 Apr 4.3 01:38:54 25° WSW 01:42:32 63° NW 01:49:25 10° NE visible
24 Apr 5.2 23:07:47 25° ESE 23:07:47 25° ESE 23:12:38 10° ENE visible
25 Apr 3.9 00:55:11 39° SW 00:57:37 84° NW 01:04:29 10° NE visible
25 Apr 5.3 02:43:39 10° W 02:49:27 37° NNW 02:56:05 10° NE visible
25 Apr 5.7 22:24:02 15° E 22:24:02 15° E 22:26:50 10° ENE visible
26 Apr 3.9 00:11:27 53° S 00:12:51 71° SE 00:19:34 10° NE visible
26 Apr 5.0 01:58:51 12° W 02:04:14 43° NNW 02:10:59 10° NE visible
26 Apr 4.2 23:27:39 47° SE 23:28:14 48° ESE 23:34:33 10° NE visible
27 Apr 4.6 01:15:03 21° WSW 01:19:07 54° NNW 01:25:59 10° NE visible
27 Apr 5.7 03:05:44 10° WNW 03:11:32 32° N 03:18:05 10° ENE visible
27 Apr 4.8 22:43:49 32° ESE 22:43:49 32° ESE 22:49:25 10° NE visible
28 Apr 4.2 00:31:13 33° WSW 00:34:08 70° NW 00:41:02 10° NE visible
28 Apr 5.5 02:20:25 10° WNW 02:26:12 35° NNW 02:32:47 10° NE visible
28 Apr 5.3 21:59:56 21° ESE 21:59:56 21° ESE 22:03:59 10° ENE visible
28 Apr 3.9 23:47:19 47° SW 23:49:16 86° SE 23:56:06 10° NE visible
29 Apr 5.3 01:35:07 10° W 01:40:56 39° NNW 01:47:36 10° NE visible
29 Apr 5.8 21:15:59 12° E 21:15:59 12° E 21:17:44 10° E visible
29 Apr 3.9 23:03:23 51° S 23:04:34 61° SE 23:11:09 10° NE visible
